SCP
0 0 0 0 0 0 0 0 0 0 0 0 0 0 0 0 0 0 0 0 0 0 0 0 0 0 0 0 0 0 0 0 0 0 0 0 0 0 0 0 0 0 0
0 0 0 0 0 0 0 0 0 0 0 0 0 0 0 0 0 0 0 0 0 0 0 0 0 0 0 0 0 0 0 0 0 0 0 0 0 0 0 0 0 0 0
0 0 0 0 0 0 0 0 0 0 0 0 0 0 0 0 0 0 0 0 0 0 0 0 0 0 0 0 0 0 0 0 0 0 0 0 0 0 0 0 0 0 0
0 0 0 0 0 0 0 0 0 0 0 0 0 0 0 0 0 0 0 0 0 0 0 0 0 0 0 0 0 0 0 0 0 0 0 0 0 0 0 0 0 0 0
0 0 0 0 0 0 0 0 0 0 0 0 0 0 0 0 0 0 0 0 0 0 0 0 0 0 0 0 0 0 0 0 0 0 0 0 0 0 0 0 0 0 0
0 0 0 0 0 0 0 0 0 0 0 0 0 0 0 0 0 0 0 0 0 0 0 0 0 0 0 0 0 0 0 0 0 0 0 0 0 0 0 0 0 0 0
0 0 0 0 0 0 0 0 0 0 0 0 0 0 0 0 0 0 0 0 0 0 0 0 0 0 0 0 0 0 0 0 0 0 0 0 0 0 0 0 0 0 0
0 0 0 0 0 0 0 0 0 0 0 0 0 0 0 0 0 0 0 0 0 0 0 0 0 0 0 0 0 0 0 0 0 0 0 0 0 0 0 0 0 0 0
0 0 0 0 0 0 0 0 0 0 0 0 0 0 0 0 0 0 0 0 0 0 0 0 0 0 0 0 0 0 0 0 0 0 0 0 0 0 0 0 0 0 0
0 0 0 0 0 0 0 0 0 0 0 0 0 0 0 0 0 0 0 0 0 0 0 0 0 0 0 0 0 0 0 0 0 0 0 0 0 0 0 0 0 0 0
0 0 0 0 0 0 0 0 0 0 0 0 0 0 0 0 0 0 0 0 0 0 0 0 0 0 0 0 0 0 0 0 0 0 0 0 0 0 0 0 0 0 0
0 0 0 0 0 0 0 0 0 0 0 0 0 0 0 0 0 0 0 0 0 0 0 0 0 0 0 0 0 0 0 0 0 0 0 0 0 0 0 0 0 0 0
0 0 0 0 0 0 0 0 0 0 0 0 0 0 0 0 0 0 0 0 0 0 0 0 0 0 0 0 0 0 0 0 0 0 0 0 0 0 0 0 0 0 0
0 0 0 0 0 0 0 0 0 0 0 0 0 0 0 0 0 0 0 0 0 0 0 0 0 0 0 0 0 0 0 0 0 0 0 0 0 0 0 0 0 0 0
0 0 0 0 0 0 0 0 0 0 0 0 0 0 0 0 0 0 0 0 0 0 0 0 0 0 0 0 0 0 0 0 0 0 0 0 0 0 0 0 0 0 0
0 0 0 0 0 0 0 0 0 0 0 0 0 0 0 0 0 0 0 0 0 0 0 0 0 0 0 0 0 0 0 0 0 0 0 0 0 0 0 0 0 0 0
0 0 0 0 0 0 0 0 0 0 0 0 0 0 0 0 0 0 0 0 0 0 0 0 0 0 0 0 0 0 0 0 0 0 0 0 0 0 0 0 0 0 0
0 0 0 0 0 0 0 0 0 0 0 0 0 0 0 0 0 0 0 0 0 0 0 0 0 0 0 0 0 0 0 0 0 0 0 0 0 0 0 0 0 0 0
-0 0 0 0 0 0 0 0 0 0 0 0 0 0 0 0 0 0 0 0 0 0 0 0 0 0 0 0 0 0 0 0 0 0 0 0 0 0 0 0 0 0 0
-0 0 0 0 0 0 0 0 0 0 0 0 0 0 0 0 0 0 0 0 0 0 0 0 0 0 0 0 0 0 0 0 0 0 0 0 0 0 0 0 0 0 0
0 0 0 0 0 0 0 0 0 0 0 0 0 0 0 0 0 0 0 0 0 0 0 0 0 0 0 0 0 0 0 0 0 0 0 0 0 0 0 0 0 0 0
0 0 0 0 0 0 0 0 0 0 0 0 0 0 0 0 0 0 0 0 0 0 0 0 0 0 0 0 0 0 0 0 0 0 0 0 0 0 0 0 0 0 0
0 0 0 0 0 0 0 0 0 0 0 0 0 0 0 0 0 0 0 0 0 0 0 0 0 0 0 0 0 0 0 0 0 0 0 0 0 0 0 0 0 0 0
0 0 0 0 0 0 0 0 0 0 0 0 0 0 0 0 0 0 0 0 0 0 0 0 0 0 0 0 0 0 0 0 0 0 0 0 0 0 0 0 0 0 0
0 0 0 0 0 0 0 0 0 0 0 0 0 0 0 0 0 0 0 0 0 0 0 0 0 0 0 0 0 0 0 0 0 0 0 0 0 0 0 0 0 0 0
0 0 0 0 0 0 0 0 0 0 0 0 0 0 0 0 0 0 0 0 0 0 0 0 0 0 0 0 0 0 0 0 0 0 0 0 0 0 0 0 0 0 0
Wind_Speed
2 1 1 1 1 1 2 2 2 1 1 1 1 0 0 1 0 1 1 1 1 1 1 1 2 1 1 1 2 2 2 3 6 6 4 4 4 6 7 5 5 6 7
2 2 2 2 1 1 2 2 2 2 2 2 1 1 1 1 1 1 1 1 2 2 2 2 2 2 2 2 2 3 3 3 5 7 5 4 5 5 6 7 7 6 6
2 2 2 2 2 2 3 2 2 2 2 2 2 2 2 2 2 2 2 2 2 3 3 3 3 2 3 3 3 3 3 3 4 5 6 5 4 5 6 6 7 6 7
2 3 3 3 3 3 3 2 2 2 2 2 2 3 3 3 3 3 3 2 3 3 3 3 3 3 4 4 3 3 3 4 4 4 6 6 5 5 4 6 7 6 7
3 3 5 4 3 3 2 3 2 2 3 3 2 2 2 3 3 3 2 2 2 2 3 3 3 3 5 4 4 4 3 4 4 4 5 6 6 6 5 5 8 8 7
4 5 4 3 3 3 3 3 2 2 2 2 2 3 3 3 4 5 3 2 2 2 3 3 3 3 4 6 7 7 6 5 5 5 5 7 8 7 6 6 7 8 7
4 3 3 3 3 3 3 2 3 2 2 2 2 2 3 4 5 5 5 2 2 2 3 3 3 3 4 4 6 8 7 9 9 6 7 8 8 7 7 8 7 8 9
3 3 3 3 3 3 3 3 3 2 2 2 2 3 3 4 5 5 5 2 2 3 3 3 4 4 4 5 4 5 5 6 7 6 6 7 7 6 6 7 8 8 8
4 4 4 4 4 3 3 4 3 2 2 2 2 2 3 4 6 6 5 2 2 3 3 3 4 5 8 8 5 5 6 6 8 10 10 10 11 11 8 5 5 5 7
5 4 4 4 4 4 5 4 3 3 3 2 3 3 3 4 6 7 6 2 3 3 3 4 5 6 8 8 5 5 7 6 5 6 8 9 8 8 9 5 4 5 6
3 3 3 3 4 4 3 2 2 2 2 2 3 3 3 4 6 7 7 3 3 3 4 4 4 9 10 9 7 5 8 7 5 5 5 5 5 4 4 4 4 5 6
2 3 3 3 3 3 3 2 2 2 2 2 2 3 3 3 4 6 8 7 6 4 5 4 5 9 10 9 7 8 9 7 3 4 5 5 5 5 5 5 5 5 6
2 3 3 3 3 3 3 3 2 2 3 3 3 4 4 3 4 7 8 8 8 5 4 7 8 9 9 7 8 8 5 3 3 4 5 5 5 5 5 4 5 5 7
3 3 3 3 2 2 2 3 3 3 4 4 4 4 4 3 3 3 3 4 5 5 4 4 7 8 6 5 4 4 3 3 4 5 5 5 4 4 4 4 5 5 5
3 3 2 3 3 2 3 3 4 4 5 5 5 4 4 5 6 8 5 4 3 4 3 2 2 3 3 3 3 3 3 3 4 4 4 4 4 4 4 4 4 4 5
3 3 3 2 2 2 2 2 5 6 6 8 8 6 5 7 8 9 9 8 8 6 3 2 3 4 4 4 4 4 3 4 4 4 4 4 4 4 5 4 4 4 5
4 4 3 2 3 3 3 3 3 3 6 7 8 9 8 8 9 9 8 8 8 6 3 4 4 5 5 4 4 4 4 4 4 4 4 4 4 4 4 5 4 4 5
4 4 4 3 3 3 3 3 3 3 3 4 5 8 8 9 8 8 7 5 4 3 3 4 5 5 5 4 4 4 4 4 3 4 4 4 4 4 4 5 4 5 5
4 3 3 2 2 2 2 2 3 3 4 4 3 4 5 7 7 7 4 3 4 4 4 5 5 4 4 4 4 4 4 4 4 4 4 4 4 4 5 5 5 5 5
3 4 3 3 2 2 2 3 3 3 4 4 4 4 3 2 3 4 3 3 4 5 5 5 5 4 4 4 4 4 4 4 4 4 4 4 4 4 5 5 5 5 5
3 3 3 3 3 3 3 3 3 3 4 4 4 4 4 3 3 4 4 4 4 5 5 5 4 4 4 4 4 4 4 4 4 4 4 4 4 4 4 4 5 5 5
3 3 3 3 3 2 3 3 3 3 4 4 4 4 5 3 3 4 4 4 4 4 4 4 4 4 4 4 4 4 5 5 4 4 4 4 4 4 4 4 4 4 4
3 3 2 2 2 3 2 2 3 3 3 4 3 3 3 3 3 4 4 4 4 4 4 4 4 4 4 4 4 5 6 6 5 5 5 5 4 4 4 4 5 5 5
3 3 3 2 2 2 3 3 3 3 3 3 3 3 4 4 4 5 4 4 4 4 4 4 4 5 6 5 4 4 5 6 5 5 6 5 5 4 4 4 4 5 5
3 3 3 3 3 3 2 3 3 3 3 3 3 3 4 4 4 4 4 4 4 4 4 4 4 4 6 6 6 5 6 7 6 4 4 4 4 4 4 4 4 4 4
2 2 2 2 2 2 2 2 3 3 3 3 3 3 4 4 4 4 4 3 4 4 4 4 5 5 6 5 6 7 7 7 6 5 3 3 4 4 3 3 4 4 4
Wind_Direction
240 224 220 229 206 190 198 216 216 215 199 181 191 200 289 298 285 141 219 247 251 272 275 265 281 287 279 278 273 264 260 255 268 282 283 293 294 301 309 305 300 302 306
238 219 221 226 212 203 216 223 214 220 213 197 195 210 233 253 246 217 230 235 243 255 263 259 268 273 270 272 268 267 266 263 269 286 294 299 296 298 303 306 309 309 304
234 223 229 231 221 224 230 227 218 220 225 221 210 220 232 237 235 234 230 240 243 249 253 251 261 265 271 274 272 270 273 277 268 279 293 298 296 301 308 304 301 299 302
231 228 234 232 228 228 229 226 226 222 227 230 233 231 236 239 237 235 236 242 249 259 264 263 262 257 264 271 272 269 276 283 284 284 292 298 298 301 304 309 311 311 308
225 229 236 235 227 224 224 224 225 225 232 238 241 242 243 241 237 238 240 236 245 263 274 272 270 267 271 274 278 276 277 279 285 287 291 300 301 310 308 306 305 309 302
224 233 233 223 217 219 223 219 221 233 235 233 238 241 248 248 255 260 261 246 247 255 269 277 280 271 274 283 285 282 277 277 283 284 287 290 293 298 300 301 304 308 303
229 233 215 207 212 218 214 211 216 220 215 227 238 237 251 258 266 271 269 263 252 261 265 272 281 283 276 277 284 287 286 284 278 275 278 282 288 292 295 296 295 291 285
228 230 219 207 218 217 202 209 219 210 213 224 235 239 250 260 270 273 277 264 249 257 261 261 270 279 279 282 284 289 287 285 282 282 272 279 284 288 283 286 289 291 288
230 230 223 209 211 210 210 218 215 205 220 227 237 237 248 263 268 274 279 260 261 269 268 265 266 270 279 289 294 292 291 291 296 293 291 294 299 300 299 294 294 299 298
231 230 221 207 207 214 219 219 207 204 222 228 245 243 246 259 267 273 275 254 264 272 274 272 265 268 281 287 285 281 283 287 297 306 305 305 303 301 302 289 277 280 288
226 222 219 212 213 219 219 209 199 203 216 227 251 259 253 256 267 269 268 258 252 264 271 274 273 279 283 285 284 275 279 292 298 296 295 296 297 297 299 295 281 266 269
208 215 222 219 215 210 206 211 194 191 208 233 250 271 265 259 259 266 266 263 263 258 263 268 273 283 288 289 286 285 290 295 291 290 292 292 295 297 300 299 289 279 266
201 219 227 223 217 206 200 206 201 197 211 232 237 257 272 271 270 271 270 269 269 263 265 274 282 286 290 290 287 291 295 283 280 282 284 287 291 295 300 303 299 291 285
213 224 217 212 219 210 208 206 207 213 217 226 233 245 259 266 263 263 261 268 271 270 274 281 284 286 285 286 290 291 283 274 269 272 281 288 296 300 301 306 307 312 307
219 223 218 212 213 216 219 220 221 225 218 225 230 231 241 257 256 258 265 263 259 261 282 291 289 287 284 283 285 282 280 280 275 276 280 287 291 296 299 305 300 305 299
214 220 216 214 215 215 227 260 247 242 250 248 247 246 250 256 273 270 271 273 274 271 272 268 270 266 266 271 277 281 273 270 275 279 280 280 286 292 297 300 298 295 293
212 217 213 212 216 220 222 234 268 275 256 254 255 261 264 273 276 277 277 279 276 269 250 252 257 261 263 264 264 265 269 272 274 272 274 277 282 286 289 293 298 297 293
216 219 216 216 216 221 225 231 236 248 272 277 271 270 276 280 283 282 282 283 272 259 241 249 254 257 260 263 266 267 272 277 273 271 273 275 276 279 283 287 290 290 296
212 216 215 217 216 221 225 228 234 241 251 267 287 291 287 287 287 284 281 249 252 256 252 253 255 257 258 260 264 265 263 266 269 272 274 277 276 278 279 283 289 291 293
214 215 209 210 214 218 222 226 235 242 252 259 264 272 282 280 277 281 264 251 251 256 256 256 257 254 254 256 260 258 261 262 264 264 269 274 272 269 272 279 285 291 293
206 210 206 208 216 219 221 226 233 238 247 255 261 267 263 262 263 268 267 261 256 258 258 259 259 256 251 250 249 250 253 258 258 261 266 269 267 271 273 275 279 283 290
192 199 205 212 216 220 230 232 235 242 250 259 274 283 272 264 261 266 267 267 264 261 259 258 262 255 245 240 242 245 250 254 256 258 264 265 264 269 274 279 285 289 292
184 191 204 213 213 217 226 230 235 244 256 265 272 277 276 268 266 267 270 272 271 269 264 257 259 262 255 247 241 238 242 247 247 244 252 260 262 264 269 275 279 288 291
186 191 200 208 209 216 226 236 240 245 252 261 266 267 268 270 272 273 275 278 278 274 268 261 259 264 269 268 259 250 247 249 245 241 240 244 254 261 266 272 277 279 283
189 194 201 207 210 218 229 241 247 250 254 259 264 270 275 277 279 281 281 283 284 282 281 274 268 268 268 270 269 265 261 262 259 249 234 232 243 253 261 269 278 288 287
186 192 201 206 210 213 221 237 252 260 265 269 271 272 274 277 281 283 286 286 289 290 289 282 276 277 276 273 271 272 272 273 268 254 232 227 240 253 261 271 277 284 290